Regional Weather Roundup
Issued by NWS

Home | Current Version | Previous Version | Graphics & Text | Print | Product List | Glossary On
Versions: 1 2 3 4 5 6 7 8 9 10 11 12 13 14 15 16 17 18 19 20 21 22 23 24 25 26 27 28 29 30 31 32 33 34 35 36 37 38 39 40 41 42 43 44 45 46 47 48 49 50
000
ASUS43 KIND 191909
RWRIN

WEATHER ROUNDUP FOR INDIANA
NATIONAL WEATHER SERVICE INDIANAPOLIS IN
200 PM EST MON FEB 19 2018

NOTE: "FAIR" INDICATES FEW OR NO CLOUDS BELOW 12,000 FEET WITH NO
SIGNIFICANT WEATHER AND/OR OBSTRUCTIONS TO VISIBILITY.

* - STATION DOES NOT REPORT WEATHER SUCH AS PRECIPITATION OR FOG.

+ - STATION NOT QUALITY CONTROLLED BY THE NATIONAL WEATHER SERVICE.
    USE DATA WITH CAUTION...ESPECIALLY DEWPOINT AND RELATIVE
    HUMIDITY OBSERVATIONS.

INZ001>003-010>013-019-020-192000-
NORTHWEST INDIANA

CITY           SKY/WX    TMP DP  RH WIND       PRES   REMARKS
GARY /AIRPORT/ CLOUDY    54  54 100 S9G23     29.80F
LA PORTE +     LGT RAIN  49  49 100 SW10G17   29.83F VSB 1/4
MICHIGAN CITY+ DRIZZLE   50  50 100 S13       29.82F
MONTICELLO +   RAIN      58  56  95 SW20G25   29.88S
RENSSELAER +   CLOUDY    57  52  82 SW23G31   29.85F
VALPARAISO     LGT RAIN  53  52  96 SW14      29.83F VSB 1/2

$$

LMZ046-743>745-192000-
SOUTHERN LAKE MICHIGAN

STATION/POSITION TIME  TEMP    WIND        PRES    WAVE
                       AIR SEA DIR/SP/G            HT
                 (UTC) (F)     (DEG/KT/KT) (MB)    (FT)
BURNS HARBOR     1840   51     190/ 16/ 19 1009.8F
MICHIGAN CITY    1840   51     170/ 16/ 20   N/A

$$

INZ004-005-014>016-021>024-192000-
NORTH CENTRAL INDIANA

CITY           SKY/WX    TMP DP  RH WIND       PRES   REMARKS
GOSHEN         RAIN      54  52  93 S17       29.85F FOG
LOGANSPORT +   LGT RAIN  55  55 100 SW18      29.90F
PERU/GRISSOM   LGT RAIN  59  59 100 S18G35    29.90S
ROCHESTER +    LGT RAIN  59 N/A N/A SW16G26   29.89S
SOUTH BEND     LGT RAIN  49  49 100 S13       29.84F FOG
WARSAW +       RAIN      54  54 100 S9        29.88S

$$

INZ006>009-017-018-025>027-192000-
NORTHEAST INDIANA

CITY           SKY/WX    TMP DP  RH WIND       PRES   REMARKS
AUBURN +       RAIN      54  54 100 S7        29.91F
FORT WAYNE     LGT RAIN  59  57  93 S18       29.91F
HUNTINGTON +   RAIN      57  56  95 SW13G23   29.91F
KENDALLVILLE + RAIN      53  53 100 S12G20    29.90S

$$

INZ028-029-035-036-043>045-051>053-192000-
WEST CENTRAL INDIANA

CITY           SKY/WX    TMP DP  RH WIND       PRES   REMARKS
CRAWFORDSVL +  DRIZZLE   58  58 100 S23G33    29.94S
GREENCASTLE +  CLOUDY    59  55  88 S10       29.98S
LAFAYETTE      CLOUDY    60  57  89 SW13G29   29.89F
TERRE HAUTE    LGT RAIN  62  59  90 SW14G25   29.98R

$$

INZ030>032-037>040-046>048-054>057-064-065-192000-
CENTRAL INDIANA

CITY           SKY/WX    TMP DP  RH WIND       PRES   REMARKS
ANDERSON       CLOUDY    59  57  94 S17G29    29.97F
COLUMBUS       CLOUDY    64  57  77 SW17      30.02F
FISHERS *+       N/A     59  59 100 SW18G29   29.97F
FRANKFORT +    CLOUDY    62  59  90 SW23G30   29.94S
GREENWOOD *+   PTSUNNY   59 -48   1 SW15G22   30.00F
INDIANAPOLIS   LGT RAIN  61  59  93 SW21G29   29.98F
-EAGLE CREEK   LGT RAIN  62  57  83 SW17      29.96F
KOKOMO +       LGT RAIN  59  57  93 SW22G30   29.93S
MARION +       LGT RAIN  57  57 100 SW18G25   29.94F
MT COMFORT *+  CLOUDY    61  61 100 S14       29.97F
SHELBYVILLE    PTSUNNY   66  58  75 SW23G29   30.00F
ZIONSVILLE +   DRIZZLE   59  57  92 SW26G36   29.96R

$$

INZ033-034-041-042-049-050-058-059-192000-
EAST CENTRAL INDIANA

CITY           SKY/WX    TMP DP  RH WIND       PRES   REMARKS
MUNCIE         LGT RAIN  63  57  81 SW17G33   29.95F
RICHMOND +     CLOUDY    61  61 100 SW21      30.03F

$$

INZ060-061-067>069-081>083-085>088-192000-
SOUTHWEST INDIANA

CITY           SKY/WX    TMP DP  RH WIND       PRES   REMARKS
EVANSVILLE     FAIR      69  60  73 SW24G33   30.02F
HUNTINGBURG +  FAIR      73  59  61 SW17G32   30.02F
WASHINGTON +   CLOUDY    66  56  71 S20       30.00F

$$

INZ062-063-066-070>080-084-089>092-192000-
SOUTH CENTRAL AND SOUTHEAST INDIANA

CITY           SKY/WX    TMP DP  RH WIND       PRES   REMARKS
BATESVILLE +   MOSUNNY   68  59  73 MISG      30.01F
BEDFORD +      CLOUDY    70  57  64 SW22G31   30.01F
BLOOMINGTON    CLOUDY    65  58  78 SW20G32   30.00F
FRENCH LICK *+ FAIR      70  54  56 SW12G22   30.02F
MADISON *+     FAIR      72  54  53 S21G31    30.06F
NORTH VERNON + FAIR      68  57  68 SW20      30.04F
SEYMOUR +      FAIR      73  57  56 SW15      30.02F

$$




USA.gov is the U.S. government's official web portal to all federal, state and local government web resources and services.